Change the Weather History Date:

Monday, February 10, 2014

  Actual Average Record
Temperature  
Mean Temperature 40 °F -  
Max Temperature 46 °F 48 °F 60 °F (1987)
Min Temperature 35 °F 33 °F 22 °F (1989)
Degree Days  
Heating Degree Days 24    
Moisture  
Dew Point 38 °F    
Average Humidity 89    
Maximum Humidity 97    
Minimum Humidity 80    
Precipitation  
Precipitation 0.13 in - - ()
Sea Level Pressure  
Sea Level Pressure 30.00 in    
Wind  
Wind Speed 13 mph (South)    
Max Wind Speed 30 mph    
Max Gust Speed 41 mph    
Visibility 8 miles    
Events Rain    
Averages and records for this station are not official NWS values.
T = Trace of Precipitation, MM = Missing Value Source: NWS Daily Summary

Daily Weather History Graph

Daily Weather History Graph

Search for Another Location

Airport or City:

Trip Planner

Search our weather history database for the weather conditions in past years. The results will help you decide how hot, cold, wet, or windy it might be!

Date:

Astronomy

Feb. 10, 2014 Rise Set
Actual Time 7:23 AM PST 5:24 PM PST
Civil Twilight 6:50 AM PST 5:56 PM PST
Nautical Twilight 6:14 AM PST 6:33 PM PST
Astronomical Twilight 5:38 AM PST 7:08 PM PST
Moon 1:50 PM PST (2/10) 4:28 AM PST (2/10)
Length of Visible Light 11h 05m
Length of Day
10h 00m
Waxing Gibbous, 85% of the Moon is Illuminated
Feb 10
Waxing Gibbous
Feb 14
Full
Feb 22
Last Quarter
Mar 1
New
Mar 8
First Quarter

Hourly Weather History & Observations

Time (PST) Temp. Windchill Dew Point Humidity Pressure Visibility Wind Dir Wind Speed Gust Speed Precip Events Conditions
12:53 AM 35.1 °F 29.3 °F 33.1 °F 92% 30.06 in 10.0 mi ESE 6.9 mph - N/A   Overcast
1:31 AM 35.1 °F 27.4 °F 32.0 °F 89% 30.03 in 10.0 mi ESE 10.4 mph - N/A   Overcast
1:53 AM 36.0 °F 31.1 °F 32.0 °F 86% 30.05 in 10.0 mi Variable 5.8 mph - N/A   Overcast
2:12 AM 36.0 °F 29.6 °F 32.0 °F 86% 30.03 in 10.0 mi ESE 8.1 mph - N/A   Overcast
2:53 AM 36.0 °F 32.1 °F 33.1 °F 89% 30.04 in 10.0 mi Variable 4.6 mph - 0.00 in Rain Light Rain
3:53 AM 37.0 °F 32.4 °F 33.1 °F 86% 30.03 in 10.0 mi Variable 5.8 mph - 0.01 in Rain Light Rain
4:53 AM 37.0 °F 30.4 °F 32.0 °F 82% 30.03 in 8.0 mi SSE 9.2 mph - 0.03 in Rain Light Rain
5:53 AM 36.0 °F 31.1 °F 33.1 °F 89% 30.01 in 7.0 mi Variable 5.8 mph - 0.05 in Rain Light Rain
6:53 AM 36.0 °F 31.1 °F 34.0 °F 93% 30.00 in 8.0 mi Variable 5.8 mph - 0.03 in Rain Light Rain
7:49 AM 37.4 °F 31.4 °F 35.6 °F 93% 29.99 in 10.0 mi SSE 8.1 mph - 0.01 in   Overcast
7:53 AM 37.0 °F 29.8 °F 35.1 °F 93% 30.00 in 10.0 mi SSE 10.4 mph - 0.01 in   Overcast
8:11 AM 37.0 °F 27.7 °F 35.1 °F 93% 29.99 in 1.0 mi SSE 16.1 mph - N/A   Overcast
8:41 AM 37.0 °F 27.0 °F 35.1 °F 93% 29.99 in 8.0 mi SSE 18.4 mph 24.2 mph N/A   Overcast
8:53 AM 37.0 °F 26.7 °F 35.1 °F 93% 30.01 in 5.0 mi SSE 19.6 mph - N/A   Overcast
9:14 AM 37.0 °F 26.2 °F 35.1 °F 93% 30.00 in 2.0 mi SSE 21.9 mph - N/A   Overcast
9:20 AM 37.0 °F 26.7 °F 36.0 °F 96% 29.99 in 1.0 mi SSE 19.6 mph - N/A   Overcast
9:53 AM 37.9 °F 27.9 °F 37.0 °F 97% 30.01 in 0.5 mi SSE 19.6 mph - N/A   Overcast
10:00 AM 39.0 °F 29.6 °F 37.0 °F 93% 29.99 in 1.0 mi SSE 18.4 mph - N/A   Overcast
10:53 AM 39.9 °F 30.2 °F 37.9 °F 93% 30.01 in 2.0 mi SSE 20.7 mph 29.9 mph N/A   Overcast
11:53 AM 41.0 °F 30.9 °F 39.0 °F 93% 29.98 in 2.0 mi South 24.2 mph 33.4 mph N/A   Overcast
12:53 PM 46.0 °F 39.0 °F 43.0 °F 89% 30.00 in 10.0 mi South 17.3 mph 24.2 mph N/A   Overcast
1:53 PM 46.9 °F - 43.0 °F 86% 29.98 in 10.0 mi South 26.5 mph 33.4 mph N/A   Overcast
2:25 PM 46.9 °F - 42.1 °F 83% 29.97 in 10.0 mi South 21.9 mph 27.6 mph N/A   Overcast
2:53 PM 46.9 °F - 42.1 °F 83% 29.97 in 10.0 mi South 27.6 mph 36.8 mph N/A   Overcast
3:53 PM 46.9 °F - 42.1 °F 83% 29.97 in 10.0 mi South 29.9 mph 41.4 mph N/A   Overcast
4:18 PM 46.0 °F 38.0 °F 43.0 °F 89% 29.97 in 5.0 mi South 21.9 mph 33.4 mph 0.00 in Rain Light Rain
4:53 PM 46.9 °F - 43.0 °F 86% 29.97 in 10.0 mi South 23.0 mph 31.1 mph 0.00 in   Overcast
5:31 PM 46.0 °F 38.3 °F 43.0 °F 89% 29.96 in 10.0 mi SSW 20.7 mph 28.8 mph N/A   Overcast
5:53 PM 46.0 °F 38.5 °F 43.0 °F 89% 29.99 in 10.0 mi SSW 19.6 mph - N/A   Overcast
6:53 PM 46.0 °F 39.3 °F 43.0 °F 89% 30.01 in 10.0 mi SSW 16.1 mph - N/A   Overcast
7:53 PM 45.0 °F 41.8 °F 42.1 °F 90% 30.00 in 10.0 mi South 5.8 mph - N/A   Mostly Cloudy
8:53 PM 45.0 °F 36.9 °F 41.0 °F 86% 29.99 in 10.0 mi SSW 20.7 mph - N/A   Mostly Cloudy
9:00 PM 45.0 °F 36.9 °F 41.0 °F 86% 29.98 in 10.0 mi South 20.7 mph 27.6 mph N/A   Scattered Clouds
9:07 PM 45.0 °F 37.4 °F 42.1 °F 90% 29.98 in 10.0 mi South 18.4 mph - N/A   Mostly Cloudy
9:53 PM 45.0 °F 37.4 °F 41.0 °F 86% 29.99 in 10.0 mi South 18.4 mph 26.5 mph N/A   Mostly Cloudy
10:01 PM 45.0 °F 37.1 °F 41.0 °F 86% 29.97 in 10.0 mi South 19.6 mph 27.6 mph N/A   Mostly Cloudy
10:53 PM 45.0 °F 38.5 °F 39.9 °F 82% 30.00 in 10.0 mi SSW 13.8 mph 25.3 mph N/A   Overcast
11:53 PM 45.0 °F 38.5 °F 39.0 °F 80% 30.03 in 10.0 mi SW 13.8 mph 23.0 mph N/A   Scattered Clouds